[Date Prev][Date Next][Thread Prev][Thread Next][Date Index][Thread Index]

[jamsat-news:1145] jas2info #156



========================   最新情報   ==============================

        Last updated :Fri.3-Sep.-1999 16:20 (JST) #156

====================================================================
   
     衛星情報 FOシリーズの軌道要素、テレメトリ、QSOの状況等を
   まとめてみました.

  1)  FO−29(JAS-2、ふじ3号)は、9月3日(金)14:54(JST)の
     パスはJARLのホムページの「ふじ3号」のスケジュールのとうりJAアナログ
     モードで運用されていました. 
       
 ■ 軌道要素1:「jamsat−keps:919」より 
              SB KEPS @ AMSAT  $ORB99246.N
       2Line Orbital Elements 99246.AMSAT

  HR AMSAT ORBITAL ELEMENTS FOR AMATEUR SATELLITES IN NASA FORMAT
  FROM WA5QGD FORT WORTH,TX September 3, 1999
  SEND SUBSCRIBE/UNSUBSCRIBE TO majordomo@amsat.org ONLY
  BID: ORB99246.N
  
  DECODE 2-LINE ELSETS WITH THE FOLLOWING KEY:
 1 AAAAAU 00  0  0 BBBBB.BBBBBBBB  .CCCCCCCC  00000-0  00000-0 0  DDDZ
 2 AAAAA EEE.EEEE FFF.FFFF GGGGGGG HHH.HHHH III.IIII JJ.JJJJJJJJKKKKKZ
 KEY: A-CATALOGNUM B-EPOCHTIME C-DECAY D-ELSETNUM E-INCLINATION F-RAAN
 G-ECCENTRICITY H-ARGPERIGEE I-MNANOM J-MNMOTION K-ORBITNUM Z-CHECKSUM
 TO ALL RADIO AMATEURS BT
 
  FO-29
  1 24278U 96046B   99245.43102273  .00000001  00000-0  39621-4 0  2707
  2 24278  98.5679 186.2779 0350680 254.1793 102.0420 13.52677526150258
 
 ■ 軌道要素2:「jamsat−keps:920」より                         
         SB KEPS @ AMSAT  $ORB99246.O
         Orbital Elements  99246.OSCAR

  HR AMSAT ORBITAL ELEMENTS FOR OSCAR SATELLITES
  FROM WA5QGD FORT WORTH,TX September 3, 1999
  SEND SUBSCRIBE/UNSUBSCRIBE TO majordomo@amsat.org ONLY
  BID: ORB99246.O
  TO ALL RADIO AMATEURS BT

   Satellite: FO-29
  Catalog number: 24278
  Epoch time:      99245.43102273
  Element set:     270
  Inclination:       98.5679 deg
  RA of node:       186.2779 deg
  Eccentricity:    0.0350680
  Arg of perigee:   254.1793 deg
  Mean anomaly:     102.0420 deg
  Mean motion:   13.52677526 rev/day
  Decay rate:        1.0e-08 rev/day^2
  Epoch rev:           15025
  Checksum:              310
  
 -----------------------------------------------------------
  2)FO−29(JAS-2,ふじ3号)の 9月3日(金)の14:53(JST)のパスでは
  JAアナログモードで運用され、それまでの取得したテレメトリデータの一部分です.

  AS15037C1  3sep99
  JST  14:56 - 15:09

  HI HI A6 C7 90 D9 1D 6D 10 0D 00 31 8B       60 93 90 B0 85 BD BB BD BD BB 
  HI HI A6 C7 90 D9 02 6D 10 0D 00 31 7B 60 8O 60 94 90 BO 83 BD BB BD BD BB
  HI HI A6 C7 90 D9 07 6D 10 0D 00 31 76 52 8D 60 93 90 B1 80 BE BB BD BD BB 
  HI HI A6 CG 90 D9 0D 6D 10 0D 09 31 73 43 92 60 93 90 B0 91 BD BB BD BD BB 
  HI HI A6 C7 90 D9 12 6D 10 0D 00 31 66 3A 94 60 93 90 B0 6C BD BB BD BC BB 
  HI HI A6 C7 90 D9 17 6D 10 0D 00 31 5D 3A 92 60 94 91 B0 65 BD BA BD BC BB 
  HI HI A6 C7 90 D9 1D 6D 10 0D 00 31 54 3B 90 60 93 90 B0 66 BD BA BD BC BB 
  HI HI A6 C7 90 D9 02 6D 10 0D 00 31 47 42 8C 60 93 90 B0 90 BD BA BC BC BB 
  HI HI A6 C7 90 D9 07 6D 10 0D 00 31 3F 5B 8C 60 93 61 B0 82 BD BA BC BC BB 
  HI HI A6 C7 90 D9 0D 6D 10 0D 00 31 4E 4C 8B 60 93 99 B0 72 BC BA BC BC BB 
  HI HI A6 C7 90 D9 12 6D 10 0D 00 31 41 48 7B 60 93 90 B0 64 BC BA BC BB BC 
  HI HI A6 C7 90 D9 17 6D 10 0D 00 31 4C 3D 8A 60 93 90 B0 75 BC BA BC BB BB 
  HI HI A6 C7 90 D9 1D 6D 10 0D 00 31 56 31 88 60 93 91 B0 74 BC BA BC BB BB 
  HI HI A6 C7 90 D9 02 6D 10 0D 00 31 69 26 81 60 93 91 B0 8C BC BA BB BB BB 
  HI HI A6 C7 90 D9 08 6D 10 0D 00 31 7C 27 7C 60 93 91 B0 95 BC B9 BB BB BC 

  AS15036C1  03Sep99
  JST  13:10 - 13:24

  HI HI AE C7 88 51 12 5F FF 1A 00 31 88 45 85 46 97 92 B0 7A BE BC BE BE BB 
  HI HI AE C7 88 51 16 5F 1E 1A 00 31 88 46 85 60 92 91 B0    BE BC BE BE BB 
  HI HI AE C7 88 51 1B 5F FF 0D 00 31 88 42 86 60 93 90 B0 75 BE BB BE BD BB 
  HI HI AE C7 88 51 01 60 FF 0D 00 31 7E 3E 87 44 97 92 B0 7B BE BB BE BD BB 
  HI HI AE C7 88 51 06 60 FF 0D 00 31 7E 3E 87 60 93 90 B0 5C BE BB BD BD BB 
  HI HI AE C7 88 55 0B 60 FF 25 00 31 7C 3D 87 44 9N 93 B0 7C BE BB BD BD BB 
  HI HI AE C7 88 55 10 60 FF 0D 00 31 5A 3A 80 48 95 92 BB I3 BD BB BD BC BB 
  HI HI AE C' 81 55 15 67 FF 0D 00 31 59 36 80 48 96 93 B0 75 BD BB BD BC BB 
  HI HI AE C7 81 55 13 67 FF 0D 00 31 4A 39 7C 60 94 91 B0 6B BD BB BC BC BB 
  HI HI A6 C7 90 D9 03 6D 10 0D 00 31 4B 35 7E 60 93 90 9F 78 BC BA BC BB BB 
  HI HI A6 C7 90 D9 09 6D 10 0D 00 31 51 2E 7E 60 93 90 B0 8B BC BA BC BB BB 
  HI HI A6 C7 90 D9 0E 6D 10 05 00 31 59 29 77 4B 95 93 B0 8D BC BA BC BB BB 
  HI HI A6 C7 90 D9 13 6D 10 0D 00 31 67 28 6C 60 93 90 B0 73 BC BA BC BB BB 
  HI HI A6 C7 90 D8 19 6D 0A 0D 00 31 79 30 7A 51 93 90 B0    BC BA BC BB BB 
  HI HI A6 C7 90 D9 1E 6D 10 1E 00 31 89 3F 7E 43 95 90 B0 7F BC BA BB BB BB 
  HI HI A6 C7 90 D9 03 6D 10 25 00 31 95 4A 82 60 93 91 B0    BB B9 BB BB BB 
  HI HI A6 C7 90 D9 09 6D 10 0D 00 31 95       60 93 90 B0 8D BB B9 BB BB BB 
  HI HI A6 C7 90 D9 0E 6D 10 0D 00 31 95       60 93 90 B0 86 BB B9 BB BB BB 
  HI HI A6 C7 90 D9 14 6D 10 0D 00 31  

  AS15035C1  3Sept99
  JST  11:30 - 11:39

  HI HI AE C7 88 55 05 2C FF 0D 00 31 55 42 7E 60 93 90 9F 94 BD BB BD BC BB 
  HI HI AE C7 88 55 0A 2C FF 1E 00 31 57 42 83 60 93 90 B0 85 DD BB BD BC BB 
  HI HI AE 07 88 55 0F 2C 0A 0D 00 31 53 42 83 60 93 91 B0 8A BC BB BD BC BB 
  HI HI AE C7 88 55 14 2C 1E 1E 00 31 54 43 83 61 94 92 B0 B6 BC BB BC BC BB 
  HI HI AE C7 88 55 19 2C FF 0D 00 31 53 3F 82 60 93 90 B0 84 BC BA BC BB BB 
  HI HI AE C7 88 55 1E 2C FF 0D 00 31 54 3D 81 60 94 91 B0 90 BC BA BC BB BB 
  HI HI AE C7 88 55 04 33 FF 0D 00 31 57 37 81 60 94 91 B0 65 BC BA BC BB BB 
  HI HI AE C7 88 55 0E 3E FF 0D 00 31 65 29 7D 60 93 91 B0 60 BC B9 BC BB BB 
  HI HI AE C7 88 55 03 5F FF 0D 00 31 73 2A 7C 60 93 90 B0 77 BB B9 BB BB BB 
  HI HI AE C7 88 51 08 5

  AS15023C1  2Sept99
  JST  14:07 - 14:20
                                                   
  HI HI AE C7 88 55 10 F8 FF OD 00 31          60 94 90 A0 75 BF BC BE BE BB  
  HI HI AE C7 88 55 14 F8 FF 1A 00 31 55 57 86 60 94 91 B0 8D BD BB BD BD BC 
  HI HI AE C7 88 55 19 F8 FF 0D 00 31 55 4B 84 61 94 92 B0 5A BD BB BD BD BC 
  HI HI AE C7 88 55 1E F8 FF 0D 00 31 52 44 83 4B 95 92 B0 71 BD BB BD BC BC 
  HI HI AE C7 88 55 03 F8 0A 0D 00 31 56 36 7F 60 94 92 B0 72 BD BB BD BC BB 
  HI HI AE C7 88 55 08 F8 FF 0D 00 31 5C 2E 7D 60 93 90 B0 8B BD BB BD BC BC 
  HI HI AE 07 88 55 0E F8 FF 0D 00 31 61 29 7A 60 93 91 B0 81 BD BB BD BC BC 
  HI HI AE C7 88 55 13 F8 FF 0D 00 31 6C 2A 7A 61 94 92 B0 8D BD BB BD BC BC 
  HI HI AE C7 88 55 18 F9 08 0D 00 31 75 2D 7E 60 94 92 B0 7A BC BA BD BC BC 
  HI HI AE C7 88 55 1D F9 FF 0D 00 31 7D 33 82 60 94 91 B0 8C BC BA BC BC BC 
  HI HI AE C7 88 55 03 FF 1E 0D 00 31 86 3F 85 60 93 91 B0 86 BC BA BC BB BC 
  HI HI AE C7 88 55 08 FF 0A 0D 00 31 84 4E 88 60 93 90 B0 9B BC BA BC BB BC 
  HI HI AE C7 88 55 0D FF FF 0D 00 31       85 61 93 91 B0 8F BC BA BC BB BC 
  HI HI AE C7 88 55 12 24 FF 0D 00 31 7A 57 6D 61 93 90 B0 8A BC BA BC BB BC 
  HI HI AE C7 88 51 18 25 FF 0D 00 31 58       61 93 90 B0 8C BB BA BC BB BC 
  HI HI AE C7 88 55 1D 26 FF 0D 00 31

  AS15002C1   2Sept99
  JST  12:18 - 12:35

  HI HI AE C7 88 55 01 F8 1A 0D 00 31 47 5F 7B 60 93 90 A0 8A BE BC BE BE BB 
  HI HI AE C7 88 55 06 F8 FF 0D 00 31 4B 58 7F 61 94 91 B0 92 BE BC BE BD BB 
  HI HI AE C7 88 55 0B F8 FF 0D 00 31 4B 54 80 60 93 91 B0 90 BE BC BE BD BB 
  HI HI AE C7 88 55 11 F8 FF 0D 00 31 47    7C 60 93 91 B0 7A BE BC BE BD BC 
  HI HI AE C7 88 55 16 F8 FF 0D 00 31 49 5  85 60 93 91 B0    BE BC BE BD BB 
  HI HI AE C7 88 55 1A F8 FF 0D 00 31 50 4B 80 60 94 91 B0 7B BE BC BE BD BB 
  HI HI AE C7 88 55 1F F8 FF 0D 00 31 4E 48 7E 60 94 91 B0 7B BE BC BD BD BB 
  HI HI AE C7 88 55 04 F8 FF 0D 00 31 50 48 7F 61 93 91 B0 83 BE BC BD BD BC 
  HI HI AE C7 88 55 09 F8 FF 0D 00 31 4C 4A 81 60 93 91 B0 76 BE BC BD BD BC 
  HI HI AE C7 88 55 0F F8 FE 0D 00 31 4A 49 81 60 94 91 B0 8B BD BB BD BD BC 
  HI HI AE C7 88 55 14 F8 FF 0D 00 31 48 4E 84 61 94 92 B0 87 BD BB BD BD BB 
  HI HI AE C7 88 55 19 F8 FF 0D 00 31 47 49 85 5F 93 90 9F  D BD BB BD BC BC 
  HI HI AE C7 88 55 1E F8 FF 0D 00 31 46 47 85 60 93 90 B0 86 BD BB BD BC BC 
  HI HI AE C7 88 55 03 F8 FF 0D 00 31 43 46 86 60 94 91 B0 74 BD BB BD BC BC 
  HI HI AE C7 88 55 08 F8 FF 0D 00 31 42 44 86 60 92 90 B0 58 BD BB BD BC BB 
  HI HI AE C7 88 55 0D F8 FF 0D 00 31 41 40 86 60 93 91 B0 7F BD BB BD BC BC
  HI HI AE C7 88 55 17 F8 FF 0D 00 31 44 38 83 61 95 92 B0 7A BC BB BC BB BC 
  HI HI AE C7 88 55 1D F8 FF 1E 00 31 44 32 7D 60 93 90 B0 83 BC BB BC BB BC 
  HI HI AE C7 88 55 02 F8 FF 1E 00 31 48 2C 7F 60 93 90 B0 8D BC BA BC BB BC 
  HI HI AE C7 88 55 07 F8 FF 0D 00 31 4D 27 80 60 93 90 B0 5C BC BA BC BB BC 
  HI HI AE C7 88 55 0C F8 FF 0D 00 31 55 24 80 60 93 90 B0 75 BC BA BC BB BC 
  HI HI AE C7 88 55 11 F8 FF 25 00 31 5F 21 7B 60 93 91 B0 6D BC BA BC BB BC 
  HI HI AE C7 88 55 16 F8 FF 1E 00 31 61 21 7B 60 93 91 B0 

  AS15009C1   1Sept99
  JST  12:12 - 12:30

  HI HI AE C7 88 55 06 A5 FF 0D 00 31    68 7C 60 93 92 A0 84 BF BC BE BE BC 
  HI HI AE C7 88 55 0B A5 FF 0D 00 31 85 67 76 60 93 91 B0 CD BF BC BE BE BC 
  HI HI AE C7 88 55 15 A5 FF 0D 00 31 6E 65 71 60 93 90 B0 6 
  
